[[{"header":{"parameterUnit":"m.s-1","parameterCategory":1,"la1":30.2991,"la2":30.254,"lo1":-89.0895,"lo2":-89.0444,"dy":0.0017,"dx":0.0017,"nx":28,"ny":28,"refTime":"2024-06-17T03:00:00:Z","depth":0,"parameterNumber":2,"parameterNumberName":"U-component_of_WINDS"},"data":[0,0,0,0,0,0,0,0,0,0,0,0,0,0,0,0,0,0,0,0,0,0,0,0,0,0,0,0,0,0,0,0,0,0,0,0,0,0,0,0,0,0,0,0,0,0,0,0,0,0,0,0,0,0,0,0,0,0,-4.1909,-4.1906,0,-4.1613,-4.1609,-4.1606,-4.14,-4.1399,-4.1397,-4.1396,-4.1078,-4.1071,-4.1064,0,0,0,0,0,0,0,0,0,0,0,0,0,-4.2283,-4.2277,-4.1909,-4.1905,-4.1902,-4.1613,-4.1609,-4.1605,-4.1401,-4.1399,-4.1397,-4.1395,-4.108,-4.1072,-4.1063,0,0,0,0,0,0,0,0,0,0,0,0,0,-4.2067,-4.2275,-4.191,-4.1765,-4.1749,-4.1614,-4.1609,-4.1604,-4.1401,-4.1399,-4.1396,-4.1394,-4.1083,-4.1072,-4.1062,-4.1042,0,0,-4.103,-4.1025,0,0,0,0,0,0,0,0,-4.2079,-4.2053,-4.179,-4.1775,-4.1757,-4.1541,-4.1624,-4.1415,-4.1402,-4.1533,-4.1396,-4.1393,-4.1233,-4.121,-4.1159,-4.1028,-4.1014,-4.1029,-4.1022,-4.1018,-4.1015,0,0,0,0,0,0,0,-4.2095,-4.2065,-4.1791,-4.1786,-4.1766,-4.171,-4.1677,-4.1584,-4.1399,-4.1521,-4.1506,-4.1474,-4.1223,-4.117,-4.115,-4.1009,-4.1029,-4.102,-4.1013,-4.1009,-4.0844,-4.0846,0,0,0,0,0,0,-4.2134,-4.2079,-4.1801,-4.1782,-4.1916,-4.1706,-4.1668,-4.1613,-4.1399,-4.1365,-4.1476,-4.1466,-4.1189,-4.1162,-4.1138,-4.1099,-4.1018,-4.1008,-4.1002,-4.0842,-4.0845,-4.0847,0,0,0,0,0,0,-4.2143,-4.2112,-4.1813,-4.1926,-4.1884,-4.1702,-4.1641,-4.1608,-4.1554,-4.1366,-4.133,-4.1457,-4.1186,-4.1153,-4.1068,-4.1085,-4.1003,-4.0994,-4.084,-4.0843,-4.0846,-4.1024,0,0,0,0,0,0,-4.2155,-4.2116,-4.211,-4.1928,-4.1879,-4.1753,-4.1642,-4.1604,-4.1538,-4.1521,-4.1338,-4.1305,-4.1181,-4.1085,-4.1058,-4.1069,-4.0985,-4.0837,-4.0841,-4.0845,-4.1015,-4.1032,-4.1047,0,0,0,0,0,-4.2169,-4.2169,-4.2111,-4.2078,-4.1869,-4.1755,-4.1726,-4.1588,-4.1541,-4.1531,-4.1409,-4.131,-4.1089,-4.1078,-4.1046,-4.1054,-4.0836,-4.084,-4.0844,-4.1008,-4.1029,-4.1046,0,0,0,0,0,0,-4.2352,-4.2142,-4.2075,-4.2018,-4.1907,-4.172,-4.1703,-4.1615,-4.151,-4.1498,-4.1328,-4.1288,-4.122,-4.1128,-4.1121,-4.1023,-4.095,-4.0948,-4.1085,-4.1103,-4.1119,-4.1141,-4.0977,0,0,0,0,0,-4.2388,-4.2317,-4.2135,-4.2101,-4.205,-4.1888,-4.1832,-4.1737,-4.1612,-4.1562,-4.1434,-4.1313,-4.1215,-4.1154,-4.1054,-4.1002,-4.0956,-4.0991,-4.1007,-4.1021,-4.102,-4.0983,-4.0996,-4.0861,-4.0861,-4.0861,0,0,-4.2456,-4.2333,-4.2298,-4.2135,-4.2038,-4.1964,-4.1848,-4.1775,-4.1718,-4.1549,-4.1462,-4.1365,-4.1218,-4.115,-4.1112,-4.107,-4.1048,-4.1027,-4.1039,-4.103,-4.0989,-4.1002,-4.1013,-4.0864,-4.0864,-4.0863,0,0,-4.2544,-4.2446,-4.2406,-4.2312,-4.2167,-4.2059,-4.2051,-4.1878,-4.1808,-4.172,-4.1592,-4.1518,-4.1355,-4.1255,-4.1183,-4.1235,-4.1139,-4.1207,-4.1288,-4.1254,-4.1264,-4.1273,-4.1289,-4.1297,-4.1208,-4.1208,-4.1208,0,-4.2647,-4.2536,-4.2396,-4.2332,-4.2262,-4.2112,-4.2068,-4.1981,-4.181,-4.1763,-4.172,-4.1512,-4.1402,-4.1308,-4.1321,-4.1268,-4.1249,-4.1226,-4.1275,-4.1282,-4.1288,-4.1301,-4.1308,-4.1217,-4.1216,-4.1215,-4.1214,0,-4.2668,-4.2593,-4.2578,-4.2422,-4.235,-4.2297,-4.2144,-4.2088,-4.1999,-4.1895,-4.1805,-4.1669,-4.1539,-4.1509,-4.1419,-4.1401,-4.1379,-4.1309,-4.1231,-4.1312,-4.1322,-4.1326,-4.123,-4.1227,-4.1224,-4.1222,0,0,-4.2861,-4.2631,-4.2627,-4.2554,-4.2384,-4.232,-4.2259,-4.2136,-4.209,-4.1977,-4.1918,-4.1784,-4.1718,-4.1636,-4.1533,-4.1504,-4.1552,-4.1436,-4.1429,-4.146,-4.152,-4.1573,-4.1582,-4.1489,-4.1489,-4.1489,-4.1532,0,-4.2921,-4.2808,-4.268,-4.2608,-4.2535,-4.2392,-4.2337,-4.2225,-4.2126,-4.2045,-4.1933,-4.1841,-4.1761,-4.1711,-4.1676,-4.1554,-4.1561,-4.1549,-4.1427,-4.1424,-4.1467,-4.1587,-4.1642,-4.1689,-4.1535,-4.1535,-4.1535,0,-4.2976,-4.2876,-4.2799,-4.2636,-4.26,-4.2554,-4.2431,-4.2358,-4.2225,-4.2155,-4.2066,-4.1958,-4.188,-4.1815,-4.1704,-4.1699,-4.1641,-4.1574,-4.1572,-4.1553,-4.1484,-4.1568,-4.17,-4.1707,-4.154,-4.154,-4.154,0,-4.3123,-4.2967,-4.2901,-4.2843,-4.2651,-4.2622,-4.2539,-4.2406,-4.234,-4.2231,-4.2186,-4.2068,-4.2003,-4.1912,-4.1773,-4.1739,-4.1675,-4.1599,-4.1611,-4.1614,-4.1601,-4.1604,-4.1724,-4.157,-4.1569,-4.1569,-4.1569,0,-4.3202,-4.316,-4.2964,-4.2923,-4.287,-4.2722,-4.2672,-4.2576,-4.2459,-4.2393,-4.2261,-4.22,-4.2022,-4.194,-4.183,-4.1753,-4.1725,-4.1662,-4.1633,-4.1673,-4.1681,-4.1631,-4.1623,-4.1571,-4.1571,-4.157,-4.157,0,-4.3355,-4.3223,-4.3141,-4.2968,-4.2923,-4.2892,-4.2741,-4.2693,-4.2588,-4.2506,-4.2478,-4.231,-4.2206,-4.206,-4.191,-4.1836,-4.1774,-4.1729,-4.182,-4.1803,-4.1822,-4.1822,-4.1912,-4.1915,-4.1763,-4.1765,-4.1766,0,-4.3414,-4.3379,-4.3203,-4.3153,-4.3077,-4.2995,-4.2929,-4.2781,-4.2717,-4.2565,-4.2534,-4.2422,-4.2323,-4.2163,-4.2025,-4.1909,-4.1858,-4.1898,-4.1839,-4.188,-4.1855,-4.1858,-4.1853,-4.1911,-4.1913,-4.1915,-4.1917,0,-4.3531,-4.3468,-4.338,-4.3269,-4.3195,-4.31,-4.2997,-4.2962,-4.2791,-4.2724,-4.262,-4.2544,-4.2393,-4.2281,-4.2147,-4.2056,-4.1957,-4.1938,-4.1933,-4.1972,-4.2026,-4.1995,-4.1856,-4.1935,-4.1933,-4.1932,-4.1931,-4.193,-4.3635,-4.3597,-4.3469,-4.3375,-4.3284,-4.3192,-4.3139,-4.3029,-4.294,-4.2809,-4.2726,-4.2625,-4.2491,-4.2302,-4.2216,-4.2131,-4.209,-4.2086,-4.2084,-4.2084,-4.2097,-4.2043,-4.2106,-4.2105,-4.2105,-4.2104,-4.2104,0,-4.3743,-4.3655,-4.357,-4.3434,-4.3359,-4.3279,-4.3161,-4.3103,-4.3017,-4.2904,-4.2811,-4.2689,-4.2581,-4.2436,-4.2315,-4.2275,-4.2226,-4.2248,-4.2247,-4.2228,-4.2141,-4.2156,-4.2289,-4.2289,-4.2289,-4.2289,-4.2289,-4.2289,-4.3791,-4.3722,-4.3644,-4.3527,-4.3435,-4.334,-4.3279,-4.3192,-4.3101,-4.2973,-4.2884,-4.2792,-4.2664,-4.2534,-4.2429,-4.2388,-4.2348,-4.2384,-4.233,-4.2251,-4.2234,-4.2218,-4.2231,-4.2378,-4.2378,-4.2422,-4.2423,-4.2423]},{"header":{"parameterUnit":"m.s-1","parameterCategory":1,"la1":30.2991,"la2":30.254,"lo1":-89.0895,"lo2":-89.0444,"dy":0.0017,"dx":0.0017,"nx":28,"ny":28,"refTime":"2024-06-17T03:00:00:Z","depth":0,"parameterNumber":3,"parameterNumberName":"V-component_of_WINDS"},"data":[0,0,0,0,0,0,0,0,0,0,0,0,0,0,0,0,0,0,0,0,0,0,0,0,0,0,0,0,0,0,0,0,0,0,0,0,0,0,0,0,0,0,0,0,0,0,0,0,0,0,0,0,0,0,0,0,0,0,-0.7147,-0.715,0,-0.748,-0.7484,-0.7488,-0.7655,-0.7655,-0.7655,-0.7655,-0.7992,-0.8001,-0.801,0,0,0,0,0,0,0,0,0,0,0,0,0,-0.6648,-0.6656,-0.7146,-0.715,-0.7155,-0.7479,-0.7484,-0.7489,-0.7654,-0.7655,-0.7655,-0.7655,-0.7989,-0.8,-0.801,0,0,0,0,0,0,0,0,0,0,0,0,0,-0.6911,-0.6659,-0.7145,-0.7277,-0.7292,-0.7479,-0.7484,-0.749,-0.7654,-0.7655,-0.7655,-0.7655,-0.7986,-0.7999,-0.8012,-0.8092,0,0,-0.8053,-0.8059,0,0,0,0,0,0,0,0,-0.6896,-0.6929,-0.7253,-0.7268,-0.7285,-0.7526,-0.7432,-0.7692,-0.7654,-0.7517,-0.7655,-0.7655,-0.7837,-0.7862,-0.7925,-0.8108,-0.8123,-0.8054,-0.8062,-0.8068,-0.8072,0,0,0,0,0,0,0,-0.6877,-0.6916,-0.7278,-0.7258,-0.7277,-0.7317,-0.7355,-0.7482,-0.7672,-0.7529,-0.7542,-0.7579,-0.7845,-0.7911,-0.7934,-0.8128,-0.8054,-0.8065,-0.8074,-0.8079,-0.8392,-0.8393,0,0,0,0,0,0,-0.6839,-0.6899,-0.7268,-0.7288,-0.7087,-0.7326,-0.7368,-0.7448,-0.7671,-0.7705,-0.7578,-0.7585,-0.7888,-0.7918,-0.7946,-0.8055,-0.8068,-0.808,-0.8088,-0.8392,-0.8392,-0.8393,0,0,0,0,0,0,-0.6827,-0.687,-0.7254,-0.7098,-0.715,-0.7335,-0.7423,-0.7455,-0.7521,-0.7709,-0.7743,-0.7611,-0.789,-0.7927,-0.8055,-0.8069,-0.8086,-0.8098,-0.8392,-0.8392,-0.8393,-0.8273,0,0,0,0,0,0,-0.6812,-0.6865,-0.6899,-0.7097,-0.7157,-0.7359,-0.7424,-0.7461,-0.7544,-0.7557,-0.7749,-0.778,-0.7893,-0.8034,-0.8068,-0.8088,-0.8109,-0.8391,-0.8392,-0.8392,-0.8276,-0.8269,-0.8263,0,0,0,0,0,-0.6794,-0.6851,-0.69,-0.6943,-0.7204,-0.7359,-0.7394,-0.7523,-0.7545,-0.758,-0.77,-0.7774,-0.8061,-0.8046,-0.8085,-0.8109,-0.8391,-0.8392,-0.8392,-0.8279,-0.827,-0.8263,0,0,0,0,0,0,-0.6649,-0.6879,-0.6936,-0.7059,-0.7188,-0.7387,-0.7435,-0.7509,-0.7634,-0.764,-0.7793,-0.7835,-0.7948,-0.8042,-0.802,-0.8198,-0.8233,-0.8242,-0.8133,-0.8127,-0.812,-0.8096,-0.812,0,0,0,0,0,-0.6631,-0.6739,-0.6935,-0.7024,-0.7086,-0.7249,-0.7321,-0.741,-0.7549,-0.7604,-0.7734,-0.7865,-0.7985,-0.8061,-0.8181,-0.8289,-0.8333,-0.8325,-0.8318,-0.8312,-0.8318,-0.8381,-0.8379,-0.8395,-0.8395,-0.8395,0,0,-0.6596,-0.6735,-0.6794,-0.6999,-0.7109,-0.7217,-0.7294,-0.7405,-0.7485,-0.7621,-0.775,-0.7848,-0.8005,-0.8123,-0.8181,-0.8204,-0.8323,-0.8313,-0.8306,-0.8316,-0.8381,-0.838,-0.8378,-0.8395,-0.8395,-0.8395,0,0,-0.6587,-0.6703,-0.6791,-0.69,-0.7066,-0.7174,-0.7194,-0.7382,-0.7453,-0.7585,-0.7688,-0.7785,-0.7988,-0.8095,-0.8176,-0.8204,-0.8277,-0.8239,-0.8204,-0.8264,-0.8262,-0.8262,-0.8272,-0.8273,-0.8244,-0.8243,-0.8243,0,-0.6522,-0.669,-0.6826,-0.6931,-0.7017,-0.7145,-0.7234,-0.7332,-0.7528,-0.7584,-0.7607,-0.7864,-0.7978,-0.8122,-0.8129,-0.819,-0.8217,-0.8219,-0.8252,-0.8253,-0.8254,-0.8265,-0.8269,-0.8238,-0.8238,-0.8239,-0.824,0,-0.6601,-0.6715,-0.6765,-0.6953,-0.7045,-0.714,-0.729,-0.7366,-0.7444,-0.7548,-0.768,-0.7821,-0.7972,-0.8012,-0.809,-0.8167,-0.8176,-0.8222,-0.8262,-0.8245,-0.8258,-0.8263,-0.823,-0.8232,-0.8233,-0.8235,0,0,-0.6512,-0.6773,-0.6789,-0.6875,-0.7067,-0.7157,-0.7257,-0.7406,-0.7468,-0.7598,-0.7685,-0.7853,-0.7898,-0.7989,-0.8079,-0.8131,-0.8144,-0.8173,-0.8179,-0.8163,-0.8236,-0.82,-0.8203,-0.8192,-0.8194,-0.8195,-0.8223,0,-0.6531,-0.6719,-0.6844,-0.6982,-0.7089,-0.721,-0.7297,-0.7423,-0.7522,-0.7625,-0.7734,-0.7851,-0.79,-0.7956,-0.8013,-0.813,-0.8161,-0.813,-0.8274,-0.8278,-0.8233,-0.821,-0.8173,-0.8193,-0.8229,-0.823,-0.8231,0,-0.6578,-0.6706,-0.6854,-0.7034,-0.7083,-0.7159,-0.7305,-0.7402,-0.7546,-0.7614,-0.7715,-0.7807,-0.7916,-0.7943,-0.8095,-0.8071,-0.8137,-0.8203,-0.8207,-0.8226,-0.8254,-0.8229,-0.8203,-0.8205,-0.824,-0.8239,-0.8239,0,-0.6498,-0.6707,-0.6823,-0.6893,-0.7105,-0.7155,-0.7245,-0.739,-0.747,-0.7596,-0.765,-0.7786,-0.7861,-0.7963,-0.8088,-0.8097,-0.8226,-0.8265,-0.8285,-0.8282,-0.8308,-0.8305,-0.8292,-0.8348,-0.8348,-0.8348,-0.8348,0,-0.6507,-0.6593,-0.679,-0.6862,-0.6961,-0.7102,-0.7196,-0.7296,-0.7423,-0.7515,-0.7626,-0.7709,-0.787,-0.7971,-0.807,-0.8179,-0.8212,-0.8269,-0.8294,-0.826,-0.8253,-0.8307,-0.8309,-0.8349,-0.8349,-0.8349,-0.8349,0,-0.6436,-0.6571,-0.6706,-0.6895,-0.6944,-0.7009,-0.717,-0.7243,-0.7347,-0.7461,-0.7496,-0.7658,-0.7784,-0.7919,-0.8089,-0.8155,-0.826,-0.8295,-0.8212,-0.8227,-0.8239,-0.8236,-0.8262,-0.8272,-0.8319,-0.8318,-0.8317,0,-0.6432,-0.6502,-0.6698,-0.6768,-0.6855,-0.6966,-0.705,-0.719,-0.7271,-0.7439,-0.7491,-0.7625,-0.774,-0.7934,-0.8067,-0.8197,-0.8237,-0.8237,-0.8257,-0.822,-0.8237,-0.8232,-0.8239,-0.823,-0.8229,-0.8228,-0.8227,0,-0.6412,-0.6476,-0.6592,-0.6731,-0.6827,-0.6943,-0.7063,-0.7114,-0.7277,-0.7362,-0.7493,-0.7582,-0.7756,-0.7887,-0.8033,-0.8124,-0.8202,-0.8219,-0.8231,-0.8197,-0.8146,-0.8174,-0.8195,-0.8219,-0.822,-0.822,-0.8221,-0.8221,-0.6376,-0.6443,-0.6591,-0.6717,-0.6822,-0.6931,-0.7008,-0.7122,-0.7234,-0.7388,-0.7462,-0.7592,-0.7732,-0.7937,-0.8025,-0.8127,-0.8151,-0.8168,-0.8172,-0.8175,-0.8166,-0.8128,-0.8154,-0.8154,-0.8155,-0.8155,-0.8156,0,-0.6362,-0.6463,-0.6577,-0.6742,-0.6839,-0.6905,-0.7041,-0.7118,-0.7231,-0.7356,-0.7466,-0.7615,-0.7742,-0.7883,-0.8019,-0.8073,-0.8112,-0.8104,-0.8102,-0.8121,-0.8137,-0.8113,-0.807,-0.807,-0.807,-0.807,-0.807,-0.807,-0.6367,-0.6484,-0.6564,-0.6732,-0.6833,-0.6962,-0.7034,-0.7134,-0.7235,-0.7396,-0.7503,-0.7594,-0.7725,-0.7871,-0.7989,-0.8028,-0.8072,-0.8053,-0.8101,-0.8113,-0.812,-0.8127,-0.8106,-0.8062,-0.8062,-0.8078,-0.8078,-0.8078]}]]